Location: Newark
(9.4667°S, 159.8167°E)
Time: 00:47:23
(UTC+00:00)

Vanguard 1 - Pass Details

Date: 21 November 2019
Orbit: 651 x 3832 km, 34.3° (Epoch: 13 December)

Event Time Altitude Azimuth Distance (km) Brightness Sun altitude
Rises 09:08:46 0° 291° (WNW) 3,671 13.6 -24.6°
Reaches altitude 10° 09:10:55 10° 287° (WNW) 2,957 13.1 -25.0°
Maximum altitude 09:18:08 59° 208° (SSW) 1,814 11.5 -26.6°
Drops below altitude 10° 09:31:47 10° 131° (SE) 5,344 13.6 -29.6°
Sets 09:37:12 0° 128° (SE) 6,858 14.2 -30.7°
